Regional Weather Roundup
Issued by NWS

Home | Current Version | Previous Version | Graphics & Text | Print | Product List | Glossary On
Versions: 1 2 3 4 5 6 7 8 9 10 11 12 13 14 15 16 17 18 19 20 21 22 23 24 25 26 27 28 29 30 31 32 33 34 35 36 37 38 39 40 41 42 43 44 45 46 47 48 49 50
000
ASUS45 KABQ 201001
RWRNM
NEW MEXICO REGIONAL WEATHER ROUNDUP
NATIONAL WEATHER SERVICE ALBUQUERQUE NM
400 AM MDT THU JUL 20 2017

NOTE: "FAIR" MEANS FEW OR NO CLOUDS BELOW 12,000 FEET AGL WITH NO
       SIGNIFICANT WEATHER OR OBSTRUCTIONS TO VISION.

      THIS PRODUCT IS RELEASED AS TWO VERSIONS.  ONE VERSION NEAR
      THE TOP OF THE HOUR CONTAINING PRELIMINARY DATA FROM ALBUQUERQUE
      AND OTHER STATIONS.  A FINAL VERSION WITH ADDITIONAL DATA IS
      ISSUED ABOUT 10 MINUTES AFTER THE HOUR.

NMZ501-503-504-510>518-201100-
NORTHWEST PLATEAU/NORTHCENTRAL MOUNTAINS

CITY           SKY/WX    TMP DP  RH WIND       PRES   REMARKS
FARMINGTON     FAIR      68  52  56 SE3       30.22R
LOS ALAMOS     FAIR      66  46  48 CALM      30.39S
SANTA FE       FAIR      62  54  74 E6        30.35R
TAOS           FAIR      55  39  54 CALM        N/A
ANGEL FIRE     FAIR      45  43  95 CALM      30.49S

$$
NMZ402-403-502-505>509-201100-
WESTCENTRAL MOUNTAINS/SOUTHWEST MOUNTAINS

CITY           SKY/WX    TMP DP  RH WIND       PRES   REMARKS
GALLUP         FAIR      64  54  69 CALM      30.31S
GRANTS         FAIR      60  50  68 CALM      30.34F
SILVER CITY    FAIR      57  52  81 N6        30.25F

$$
NMZ407-409-411-412-201100-
SOUTHERN DESERTS

CITY           SKY/WX    TMP DP  RH WIND       PRES   REMARKS
DEMING         FAIR      65  61  87 E8        30.20R
LAS CRUCES     FAIR      67  60  78 E3        30.21S
HOLLOMAN AFB   FAIR      67  60  76 N5        30.21S
ALAMOGORDO     FAIR      66  59  77 CALM      30.21F
T OR C         FAIR      67  60  78 NW5       30.22F

$$
NMZ519>523-201100-
CENTRAL VALLEYS/CENTRAL HIGHLANDS

CITY           SKY/WX    TMP DP  RH WIND       PRES   REMARKS
ALBUQUERQUE    MOCLDY    69  53  56 E6        30.29S
DOUBLE EAGLE   FAIR      64  51  64 SE3       30.32S
MORIARTY ARPT  FAIR      60  55  86 SE3       30.35S
CLINES CORNERS FAIR      58  52  80 W10       30.39F
BELEN          NOT AVBL
SOCORRO        FAIR      66  59  78 SE8       30.24S

$$
NMZ524>526-539-540-201100-
SOUTHCENTRAL MOUNTAINS

CITY           SKY/WX    TMP DP  RH WIND       PRES   REMARKS
RUIDOSO        FAIR      61  48  63 NW6       30.38S

$$
NMZ527>531-201100-
NORTHEAST HIGHLANDS/NORTHEAST PLAINS

CITY           SKY/WX    TMP DP  RH WIND       PRES   REMARKS
LAS VEGAS      FAIR      57  49  74 S10       30.36R
RATON          FAIR      59  47  64 N7        30.29S
CLAYTON        FAIR      69  58  67 SW16      30.20S

$$
NMZ532>537-201100-
EASTCENTRAL PLAINS

CITY           SKY/WX    TMP DP  RH WIND       PRES   REMARKS
SANTA ROSA     FAIR      66  57  74 SE8       30.23S
TUCUMCARI      FAIR      71  59  65 SW7       30.16S
CANNON AFB     FAIR      68  61  77 S3        30.24R
CLOVIS AIRPORT FAIR      64  56  75 SW7       30.23S

$$
NMZ028-029-538-201100-
SOUTHEAST PLAINS

CITY           SKY/WX    TMP DP  RH WIND       PRES   REMARKS
ROSWELL        FAIR      70  58  65 SE3       30.17S
ARTESIA        FAIR      70  57  64 CALM      30.17S
CARLSBAD       FAIR      69  59  70 SW5       30.14R
HOBBS          FAIR      66  63  88 E6        30.20F


$$




USA.gov is the U.S. government's official web portal to all federal, state and local government web resources and services.